[[[{"header":{"parameterUnit":"kt","parameterCategory":2,"dx":1,"dy":1,"la1":30.253999710083008,"la2":30.299108505249023,"lo1":-89.0895004272461,"lo2":-89.04439544677734,"nx":28,"ny":28,"refTime":"2022-10-27T21:00:00:Z","depth":0,"parameterNumber":1,"parameterNumberName":"U-component_of_WINDS"},"data":[-0.0177,-0.021,-0.0194,-0.0224,-0.0215,-0.0234,-0.0236,-0.0237,-0.0234,-0.0255,-0.0264,-0.0253,-0.0245,-0.0254,-0.0264,-0.0259,-0.0266,-0.0287,-0.0279,-0.0193,-0.0181,-0.0169,-0.0161,-0.0288,-0.0288,-0.037,-0.0371,-0.0371,-0.0112,-0.0104,-0.0115,-0.0116,-0.0126,-0.0095,-0.0093,-0.0105,-0.0123,-0.0119,-0.0128,-0.0146,-0.0159,-0.0144,-0.0154,-0.017,-0.0158,-0.0174,-0.0175,-0.0174,-0.0082,-0.0073,-0.0184,-0.0184,-0.0183,-0.0183,-0.0183,-0.0183,0.0009,-0.0011,-0.0003,-0.0016,-0.0012,-0.0013,-0.0031,-0.0016,-0.0028,-0.0037,-0.0017,-0.0038,-0.0033,-0.0039,-0.0038,-0.0054,-0.0035,-0.0049,-0.0053,-0.0058,-0.0065,0.0049,-0.0055,-0.0055,-0.0055,-0.0054,-0.0054,0,0.0102,0.0116,0.0105,0.0099,0.0091,0.0087,0.0086,0.0076,0.0108,0.0097,0.0081,0.0073,0.0059,0.0044,0.0038,0.0041,0.0068,0.0073,0.0062,0.005,0.0042,0.0044,0.0192,0.0074,0.0075,0.0076,0.0077,0.0077,0.0223,0.0197,0.0212,0.0203,0.0206,0.0189,0.0182,0.0213,0.0204,0.0207,0.0186,0.0173,0.0163,0.0133,0.0147,0.0135,0.0147,0.0101,0.0145,0.0137,0.0144,0.0144,0.0141,0.009,0.0088,0.0087,0.0086,0,0.0289,0.0313,0.0278,0.0295,0.0298,0.0269,0.0283,0.0263,0.0278,0.0253,0.0248,0.027,0.0253,0.0275,0.0258,0.027,0.0221,0.0235,0.0221,0.0223,0.0182,0.0185,0.0048,0.0031,0.0166,0.0165,0.0164,0,0.04,0.0365,0.0402,0.038,0.0343,0.0374,0.0335,0.0344,0.0348,0.0328,0.0364,0.0344,0.0375,0.0358,0.0375,0.0339,0.0337,0.0342,0.0346,0.0337,0.0336,0.0328,0.0333,0.0359,0.036,0.0361,0.0361,0,0.0498,0.0477,0.0443,0.0441,0.0454,0.0436,0.044,0.0445,0.0437,0.043,0.0425,0.0415,0.0408,0.0399,0.042,0.0449,0.0378,0.0422,0.0383,0.0382,0.0362,0.0362,0.024,0.0362,0.0362,0.0362,0.0363,0,0.059,0.0584,0.053,0.0541,0.0534,0.0511,0.0503,0.0488,0.0489,0.0499,0.0493,0.0517,0.0489,0.0532,0.0493,0.0525,0.0517,0.052,0.0517,0.0512,0.0558,0.0483,0.0367,0.0354,0.0514,0.0515,0.0516,0,0.0696,0.0647,0.0673,0.0621,0.0601,0.0642,0.0617,0.0617,0.0627,0.0611,0.0622,0.0602,0.0639,0.0635,0.0614,0.0623,0.0581,0.063,0.0603,0.0601,0.0599,0.0493,0.0469,0.0391,0.0532,0.0531,0.0529,0,0.0779,0.0795,0.0783,0.0782,0.0788,0.0771,0.0742,0.073,0.0718,0.0714,0.0689,0.0663,0.0689,0.0682,0.07,0.0676,0.061,0.0706,0.0706,0.0686,0.0543,0.052,0.0507,0.0628,0.0626,0.0624,0.0543,0,0.0909,0.0887,0.0858,0.0854,0.0845,0.0813,0.0835,0.0822,0.0841,0.0852,0.0816,0.0819,0.0804,0.0796,0.0812,0.0752,0.0764,0.0791,0.083,0.0762,0.0735,0.0725,0.0869,0.087,0.0871,0.0872,0,0,0.1002,0.0971,0.0999,0.0971,0.0965,0.1006,0.0969,0.0968,0.0961,0.0955,0.0979,0.0941,0.0941,0.0895,0.0875,0.087,0.086,0.0882,0.0795,0.0786,0.0778,0.075,0.0738,0.0874,0.0875,0.0875,0.0875,0,0.1053,0.1056,0.102,0.102,0.1021,0.1033,0.1025,0.1031,0.1036,0.1001,0.1032,0.1013,0.0981,0.0978,0.0971,0.089,0.0913,0.0884,0.0833,0.0806,0.0795,0.0787,0.0756,0.0745,0.0878,0.0878,0.0878,0,0.1137,0.1143,0.1129,0.1116,0.1116,0.1093,0.1142,0.1116,0.11,0.1142,0.1105,0.1109,0.1106,0.106,0.1039,0.1059,0.096,0.0995,0.0988,0.0985,0.0959,0.0947,0.0936,0.1078,0.1079,0.1079,0,0,0.1178,0.1158,0.1171,0.1128,0.1126,0.1144,0.1134,0.1151,0.1148,0.1146,0.1151,0.1146,0.1128,0.1115,0.1098,0.1045,0.1045,0.1018,0.1009,0.1001,0.0994,0.0966,0.0954,0.1082,0.1082,0.1082,0,0,0.1196,0.1211,0.123,0.1183,0.118,0.1189,0.1161,0.1184,0.1172,0.1177,0.1202,0.1202,0.1159,0.116,0.119,0.1112,0.1152,0.1145,0.1112,0.11,0.1091,0.109,0.1236,0,0,0,0,0,0.1258,0.121,0.1227,0.1222,0.1204,0.118,0.1177,0.1198,0.1226,0.1204,0.1211,0.1237,0.1182,0.1208,0.1202,0.1168,0.1112,0.1107,0.1102,0.1047,0.1034,0.1024,0,0,0,0,0,0,0.1256,0.1251,0.1229,0.1235,0.1231,0.1182,0.1233,0.1238,0.1229,0.1235,0.1235,0.1237,0.1253,0.1213,0.1207,0.1174,0.1238,0.111,0.1105,0.1101,0.1043,0.1032,0.1024,0,0,0,0,0,0.1255,0.1251,0.1216,0.1236,0.1232,0.1249,0.1235,0.1239,0.1233,0.1244,0.1247,0.1249,0.1251,0.1248,0.1209,0.1176,0.1243,0.124,0.1107,0.1103,0.11,0.1038,0,0,0,0,0,0,0.1254,0.1253,0.1216,0.1216,0.1255,0.1252,0.1252,0.1241,0.1243,0.1245,0.1259,0.1263,0.125,0.1247,0.1244,0.1176,0.1246,0.1244,0.1242,0.1104,0.1101,0.1099,0,0,0,0,0,0,0.1256,0.1253,0.1216,0.124,0.1242,0.1254,0.1255,0.1224,0.1242,0.1258,0.1262,0.1261,0.1253,0.1247,0.1245,0.1196,0.1248,0.1246,0.1245,0.1244,0.1102,0.11,0,0,0,0,0,0,0.1255,0.1252,0.124,0.1242,0.1244,0.1242,0.1228,0.1208,0.1264,0.1257,0.127,0.1272,0.1252,0.125,0.1244,0.1197,0.1196,0.1248,0.1247,0.1246,0.1245,0,0,0,0,0,0,0,0.1254,0.1268,0.1218,0.1244,0.1246,0.1213,0.1213,0.1213,0.1265,0.1267,0.1269,0.1271,0.1261,0.1258,0.1256,0.1197,0,0,0.1249,0.1248,0,0,0,0,0,0,0,0,0.127,0.1269,0.1218,0.1218,0.1218,0.1213,0.1213,0.1213,0.1265,0.1267,0.1269,0.127,0.126,0.1258,0.1256,0,0,0,0,0,0,0,0,0,0,0,0,0,0,0,0.1218,0.1218,0,0.1213,0.1213,0.1213,0.1265,0.1267,0.1268,0.127,0.126,0.1258,0.1256,0,0,0,0,0,0,0,0,0,0,0,0,0,0,0,0,0,0,0,0,0,0,0,0,0,0,0,0,0,0,0,0,0,0,0,0,0,0,0,0,0,0,0,0,0,0,0,0,0,0,0,0,0,0,0,0,0,0,0,0,0,0,0,0,0,0,0,0,0]}],[{"header":{"parameterUnit":"kt","parameterCategory":2,"dx":1,"dy":1,"la1":30.253999710083008,"la2":30.299108505249023,"lo1":-89.0895004272461,"lo2":-89.04439544677734,"nx":28,"ny":28,"refTime":"2022-10-27T21:00:00:Z","depth":0,"parameterNumber":2,"parameterNumberName":"V-component_of_WINDS"},"data":[-2.7121,-2.7153,-2.7183,-2.7233,-2.7268,-2.7308,-2.7331,-2.7365,-2.74,-2.745,-2.7485,-2.7519,-2.7565,-2.7614,-2.7653,-2.7667,-2.7681,-2.767,-2.7688,-2.7711,-2.7716,-2.7721,-2.7715,-2.7672,-2.7672,-2.766,-2.766,-2.766,-2.7134,-2.717,-2.7205,-2.726,-2.729,-2.7319,-2.7365,-2.7389,-2.7423,-2.7466,-2.7502,-2.7549,-2.759,-2.7642,-2.7687,-2.7702,-2.7718,-2.7712,-2.7711,-2.7718,-2.7743,-2.7737,-2.7698,-2.7698,-2.7698,-2.7698,-2.7698,-2.7698,-2.7166,-2.7183,-2.7234,-2.7273,-2.7309,-2.7346,-2.7368,-2.741,-2.7445,-2.7495,-2.7525,-2.7565,-2.7614,-2.7683,-2.7714,-2.7746,-2.7759,-2.7761,-2.7762,-2.7761,-2.7757,-2.7768,-2.7755,-2.7756,-2.7756,-2.7756,-2.7756,0,-2.7198,-2.7222,-2.7258,-2.7303,-2.7334,-2.7372,-2.7412,-2.7427,-2.7489,-2.7516,-2.7557,-2.7586,-2.7643,-2.7684,-2.7734,-2.7766,-2.7798,-2.7805,-2.7807,-2.7792,-2.7773,-2.7783,-2.7822,-2.7805,-2.7806,-2.7806,-2.7807,-2.7807,-2.7231,-2.7248,-2.7317,-2.7338,-2.7368,-2.7402,-2.7429,-2.7482,-2.7508,-2.7566,-2.7579,-2.7622,-2.7659,-2.772,-2.7769,-2.7811,-2.7827,-2.7817,-2.7834,-2.7819,-2.7826,-2.7824,-2.7826,-2.7813,-2.7812,-2.7811,-2.7811,0,-2.7246,-2.7296,-2.7334,-2.7401,-2.7418,-2.7434,-2.7491,-2.7511,-2.755,-2.7583,-2.7594,-2.7654,-2.7694,-2.7745,-2.78,-2.7825,-2.7851,-2.7866,-2.7834,-2.784,-2.7835,-2.7834,-2.7814,-2.7814,-2.786,-2.786,-2.7859,0,-2.7293,-2.7315,-2.7389,-2.7408,-2.7433,-2.7487,-2.7511,-2.7547,-2.759,-2.7617,-2.7663,-2.7687,-2.7749,-2.778,-2.7818,-2.7848,-2.7859,-2.788,-2.7889,-2.7875,-2.7872,-2.7889,-2.789,-2.7911,-2.7911,-2.7911,-2.7911,0,-2.7311,-2.7377,-2.7408,-2.7431,-2.7505,-2.7518,-2.755,-2.76,-2.7625,-2.7667,-2.7684,-2.7728,-2.7752,-2.7786,-2.7833,-2.7843,-2.7872,-2.7895,-2.7894,-2.7892,-2.7897,-2.7896,-2.7866,-2.7911,-2.7912,-2.7912,-2.7912,0,-2.7357,-2.7399,-2.7437,-2.7499,-2.7514,-2.7535,-2.7583,-2.7613,-2.7662,-2.7687,-2.772,-2.7757,-2.7788,-2.7807,-2.7851,-2.7849,-2.787,-2.7894,-2.7894,-2.79,-2.7918,-2.7894,-2.7861,-2.7859,-2.7905,-2.7905,-2.7905,0,-2.7364,-2.7416,-2.7463,-2.7499,-2.753,-2.758,-2.7604,-2.7647,-2.7682,-2.7714,-2.7754,-2.7789,-2.7814,-2.7832,-2.7848,-2.789,-2.7892,-2.7891,-2.7935,-2.7936,-2.7919,-2.789,-2.7872,-2.7863,-2.7905,-2.7905,-2.7905,0,-2.7375,-2.7465,-2.7468,-2.7496,-2.7562,-2.7589,-2.7617,-2.7664,-2.7683,-2.7726,-2.7751,-2.7803,-2.7823,-2.7853,-2.7888,-2.7901,-2.7892,-2.7921,-2.7923,-2.7913,-2.791,-2.7892,-2.7891,-2.7912,-2.7912,-2.7912,-2.7905,0,-2.7431,-2.7464,-2.7475,-2.7537,-2.7566,-2.7592,-2.7647,-2.767,-2.77,-2.7737,-2.7775,-2.7824,-2.7872,-2.7884,-2.7914,-2.7928,-2.7934,-2.7955,-2.7977,-2.7957,-2.7956,-2.7956,-2.7974,-2.7975,-2.7975,-2.7976,0,0,-2.7424,-2.7473,-2.7524,-2.7554,-2.7581,-2.7633,-2.7655,-2.7688,-2.7753,-2.7771,-2.7783,-2.7863,-2.7902,-2.7942,-2.794,-2.796,-2.7967,-2.7972,-2.7966,-2.7965,-2.7964,-2.7962,-2.796,-2.7978,-2.7978,-2.7978,-2.7978,0,-2.7455,-2.7495,-2.7517,-2.7553,-2.7609,-2.7648,-2.7653,-2.7717,-2.7742,-2.778,-2.7821,-2.7851,-2.7914,-2.7949,-2.7976,-2.7969,-2.7998,-2.798,-2.7958,-2.7972,-2.797,-2.7968,-2.7965,-2.7963,-2.798,-2.798,-2.798,0,-2.7476,-2.7523,-2.754,-2.7606,-2.7643,-2.7674,-2.771,-2.7742,-2.7766,-2.7821,-2.7857,-2.7891,-2.7944,-2.7975,-2.7991,-2.8003,-2.8023,-2.8027,-2.8023,-2.8026,-2.8043,-2.804,-2.8038,-2.8072,-2.8072,-2.8072,0,0,-2.7496,-2.7528,-2.7596,-2.7617,-2.7637,-2.7695,-2.7718,-2.7751,-2.7797,-2.7816,-2.7861,-2.7904,-2.7942,-2.7965,-2.8003,-2.8029,-2.8044,-2.8036,-2.8032,-2.8028,-2.8028,-2.8044,-2.8041,-2.8073,-2.8073,-2.8073,0,0,-2.7505,-2.7585,-2.7608,-2.764,-2.7682,-2.7751,-2.7762,-2.7791,-2.7831,-2.7834,-2.7891,-2.7905,-2.7935,-2.7967,-2.7966,-2.8011,-2.8031,-2.8033,-2.7989,-2.7984,-2.798,-2.7971,-2.8009,0,0,0,0,0,-2.7566,-2.7575,-2.7595,-2.7609,-2.7692,-2.774,-2.7751,-2.7798,-2.7811,-2.7819,-2.7861,-2.7891,-2.7978,-2.7978,-2.799,-2.7992,-2.8077,-2.8076,-2.8076,-2.8026,-2.802,-2.8015,0,0,0,0,0,0,-2.7572,-2.7588,-2.7595,-2.7663,-2.7682,-2.774,-2.7772,-2.7786,-2.7812,-2.7817,-2.7882,-2.7894,-2.7935,-2.7975,-2.7985,-2.7986,-2.8006,-2.8077,-2.8076,-2.8075,-2.8024,-2.8019,-2.8015,0,0,0,0,0,-2.7577,-2.759,-2.7712,-2.7663,-2.768,-2.7745,-2.7772,-2.7784,-2.7805,-2.7871,-2.7883,-2.7838,-2.7933,-2.7946,-2.7981,-2.798,-2.7999,-2.8002,-2.8076,-2.8076,-2.8075,-2.8021,0,0,0,0,0,0,-2.758,-2.7601,-2.7716,-2.7723,-2.7664,-2.7743,-2.7757,-2.7782,-2.7858,-2.787,-2.7829,-2.7832,-2.7933,-2.7942,-2.7951,-2.7975,-2.7993,-2.7997,-2.7999,-2.8076,-2.8075,-2.8075,0,0,0,0,0,0,-2.7594,-2.7606,-2.772,-2.7717,-2.7725,-2.7741,-2.7753,-2.7791,-2.7858,-2.7812,-2.7817,-2.783,-2.7919,-2.794,-2.7947,-2.8004,-2.7989,-2.7992,-2.7995,-2.7997,-2.8076,-2.8075,0,0,0,0,0,0,-2.76,-2.761,-2.7716,-2.7721,-2.7728,-2.7808,-2.7775,-2.7858,-2.7856,-2.7808,-2.7857,-2.7858,-2.7916,-2.7924,-2.7944,-2.7997,-2.8002,-2.7989,-2.7991,-2.7993,-2.7994,0,0,0,0,0,0,0,-2.7605,-2.7523,-2.7675,-2.7725,-2.773,-2.7787,-2.7788,-2.779,-2.7856,-2.7857,-2.7857,-2.7857,-2.7968,-2.7972,-2.7976,-2.7992,0,0,-2.7989,-2.799,0,0,0,0,0,0,0,0,-2.752,-2.7522,-2.7676,-2.7677,-2.7679,-2.7787,-2.7788,-2.779,-2.7856,-2.7856,-2.7857,-2.7857,-2.7969,-2.7972,-2.7976,0,0,0,0,0,0,0,0,0,0,0,0,0,0,0,-2.7676,-2.7677,0,-2.7787,-2.7788,-2.779,-2.7856,-2.7856,-2.7857,-2.7857,-2.797,-2.7973,-2.7975,0,0,0,0,0,0,0,0,0,0,0,0,0,0,0,0,0,0,0,0,0,0,0,0,0,0,0,0,0,0,0,0,0,0,0,0,0,0,0,0,0,0,0,0,0,0,0,0,0,0,0,0,0,0,0,0,0,0,0,0,0,0,0,0,0,0,0,0,0]}]]]